Weather History for PABT - October, 2013

Change the Weather History Date:

Monday, October 28, 2013

  Actual Average Record
Temperature  
Mean Temperature 32 °F -  
Max Temperature 35 °F 15 °F 37 °F (2002)
Min Temperature 30 °F 0 °F -22 °F (1982)
Degree Days  
Heating Degree Days 32    
Moisture  
Dew Point 31 °F    
Average Humidity 92    
Maximum Humidity 100    
Minimum Humidity 72    
Precipitation  
Precipitation 0.16 in - - ()
Snow  
Snow 0.00 in - - ()
Snow Depth 2.00 in    
Sea Level Pressure  
Sea Level Pressure 29.31 in    
Wind  
Wind Speed 6 mph (NE)    
Max Wind Speed 10 mph    
Max Gust Speed 21 mph    
Visibility 3 miles    
Events Rain , Snow    
Averages and records for this station are not official NWS values.
T = Trace of Precipitation, MM = Missing Value Source: NWS Daily Summary

Daily Weather History Graph

Daily Weather History Graph

Search for Another Location

Airport or City:

Trip Planner

Search our weather history database for the weather conditions in past years. The results will help you decide how hot, cold, wet, or windy it might be!

Date:

Astronomy

Oct. 28, 2013 Rise Set
Actual Time 9:54 AM AKDT 5:43 PM AKDT
Civil Twilight 8:55 AM AKDT 6:42 PM AKDT
Nautical Twilight 7:52 AM AKDT 7:45 PM AKDT
Astronomical Twilight 6:50 AM AKDT 8:47 PM AKDT
Moon 1:29 AM AKDT (10/28) 4:42 PM AKDT (10/28)
Length of Visible Light 9h 47m
Length of Day
7h 48m
Waning Crescent, 33% of the Moon is Illuminated
Oct 28
Waning Crescent
Nov 3
New
Nov 9
First Quarter
Nov 17
Full
Nov 25
Last Quarter

Hourly Weather History & Observations

Time (AKDT) Temp. Windchill Dew Point Humidity Pressure Visibility Wind Dir Wind Speed Gust Speed Precip Events Conditions
12:53 AM 33.1 °F 28.7 °F 25.0 °F 72% 29.73 in 10.0 mi North 4.6 mph - N/A   Overcast
1:53 AM 33.1 °F 30.0 °F 25.0 °F 72% 29.69 in 10.0 mi North 3.5 mph - N/A Snow Light Snow
2:17 AM 33.8 °F 26.4 °F 26.6 °F 75% 29.63 in 7.0 mi NE 9.2 mph - N/A Snow Light Snow
2:53 AM 33.1 °F 26.1 °F 28.0 °F 82% 29.64 in 3.0 mi NE 8.1 mph - N/A Snow Light Snow
3:06 AM 33.8 °F 25.8 °F 28.4 °F 81% 29.59 in 2.0 mi NE 10.4 mph 20.7 mph N/A Snow Light Snow
3:53 AM 32.0 °F 24.8 °F 30.0 °F 92% 29.61 in 1.5 mi NNE 8.1 mph - N/A Snow Light Snow
4:53 AM 30.9 °F 22.8 °F 28.9 °F 92% 29.55 in 1.5 mi NNE 9.2 mph - N/A Snow Light Snow
5:38 AM 30.2 °F 23.4 °F 30.2 °F 100% 29.49 in 2.5 mi NE 6.9 mph - N/A Snow Light Snow
5:53 AM 32.0 °F 25.6 °F 28.9 °F 88% 29.52 in 2.5 mi NE 6.9 mph 16.1 mph N/A Snow Light Snow
6:53 AM 32.0 °F 23.6 °F 28.9 °F 88% 29.47 in 3.0 mi NE 10.4 mph - N/A Snow Light Snow
7:33 AM 32.0 °F 25.6 °F 30.2 °F 93% 29.41 in 2.5 mi NNE 6.9 mph - N/A Snow Light Snow
7:53 AM 32.0 °F 24.2 °F 30.0 °F 92% 29.44 in 2.5 mi NNE 9.2 mph - N/A Snow Light Snow
8:53 AM 32.0 °F 24.8 °F 30.0 °F 92% 29.41 in 1.2 mi NNE 8.1 mph - N/A Snow Light Snow
9:53 AM 32.0 °F 25.6 °F 30.9 °F 96% 29.39 in 1.2 mi NNE 6.9 mph - N/A Snow Light Snow
10:53 AM 32.0 °F 24.8 °F 30.9 °F 96% 29.36 in 1.5 mi NNE 8.1 mph - N/A Snow Light Snow
11:53 AM 33.1 °F 25.5 °F 30.9 °F 92% 29.33 in 1.5 mi NNE 9.2 mph - N/A Snow Light Snow
11:55 AM 33.8 °F 27.0 °F 30.2 °F 87% 29.28 in 3.0 mi NNE 8.1 mph - N/A Snow Light Snow
12:53 PM 33.1 °F 26.9 °F 30.9 °F 92% 29.30 in 4.0 mi NE 6.9 mph - N/A Snow Light Snow
1:07 PM 33.8 °F 27.0 °F 32.0 °F 93% 29.25 in 2.5 mi NNE 8.1 mph - N/A Rain , Snow Light Freezing Rain
1:53 PM 34.0 °F 27.2 °F 32.0 °F 92% 29.25 in 2.5 mi NNE 8.1 mph - N/A Rain Light Freezing Rain
2:09 PM 33.8 °F 27.0 °F 32.0 °F 93% 29.21 in 3.0 mi NNE 8.1 mph - N/A Rain Light Freezing Rain
2:25 PM 33.8 °F 25.8 °F 32.0 °F 93% 29.19 in 6.0 mi NNE 10.4 mph - N/A Rain Light Rain
2:53 PM 34.0 °F 27.2 °F 32.0 °F 92% 29.22 in 6.0 mi NNE 8.1 mph - N/A Rain Light Rain
3:53 PM 34.0 °F 27.2 °F 32.0 °F 92% 29.19 in 6.0 mi NNE 8.1 mph - N/A   Light Drizzle
4:53 PM 34.0 °F 27.2 °F 32.0 °F 92% 29.15 in 7.0 mi NNE 8.1 mph - N/A Rain Light Rain
5:53 PM 34.0 °F 28.0 °F 32.0 °F 92% 29.13 in 6.0 mi NNE 6.9 mph - N/A Rain Light Rain
6:53 PM 34.0 °F - 32.0 °F 92% 29.11 in 4.0 mi Calm Calm - N/A Rain Light Rain
7:53 PM 33.1 °F - 32.0 °F 96% 29.11 in 4.0 mi Calm Calm - N/A Rain Light Rain
8:34 PM 32.0 °F - 32.0 °F 100% 29.07 in 2.5 mi Calm Calm - N/A Snow Light Snow
8:53 PM 32.0 °F - 32.0 °F 100% 29.10 in 2.0 mi Calm Calm - N/A Snow Light Snow
9:07 PM 32.0 °F - 32.0 °F 100% 29.07 in 2.0 mi Calm Calm - N/A Rain , Snow Light Freezing Rain
9:51 PM 32.0 °F - 32.0 °F 100% 29.07 in 0.8 mi Calm Calm - N/A Snow Light Snow
9:53 PM 32.0 °F - 32.0 °F 100% 29.11 in 0.8 mi Calm Calm - N/A Snow Light Snow
10:45 PM 32.0 °F - 32.0 °F 100% 29.07 in 0.8 mi Calm Calm - N/A Snow Light Snow
10:53 PM 32.0 °F 28.7 °F 32.0 °F 100% 29.11 in 0.8 mi SSE 3.5 mph - N/A Snow Light Snow
11:06 PM 32.0 °F 28.7 °F 32.0 °F 100% 29.07 in 1.2 mi SSE 3.5 mph - N/A Snow Light Snow
11:27 PM 32.0 °F 27.5 °F 30.2 °F 93% 29.08 in 2.0 mi SSE 4.6 mph - N/A Snow Light Snow
11:53 PM 32.0 °F - 32.0 °F 100% 29.12 in 3.0 mi Calm Calm - N/A Snow Light Snow